星链-11502 (STARLINK-11502)

导读 | 星芒AI

STARLINK-11502 是 SpaceX Starlink 项目中的一颗低轨通信卫星,属于第 50 批部署的星链卫星之一。该卫星于 2023 年发射,旨在为全球用户提供高速互联网服务。它运行在约 550 公里的轨道高度,采用先进的推进系统和激光通信技术,以提高网络效率和稳定性。STARLINK-11502 与其他星链卫星协同工作,构建起覆盖全球的卫星互联网网络,支持偏远地区和传统网络难以覆盖区域的通信需求。

基本信息
目录编号:
62474
目录名称:
STARLINK-11502
国际标识:
2024-254N
轨道中心:
EARTH
卫星名称:
星链-11502
卫星全名:
星链-11502 (STARLINK-11502)
卫星状态:
在轨 (已飞行307 天)
发射日期:
2024-12-31 UTC
国别 :
美国 (US)
星等 :
--
轨道信息
数据来源 国际轨道数据
星历时间: 2025-11-02T16:15:08+0800
1天前
查看轨道信息
半长轴: 6734.233km
偏心率: 0.0001468
轨道倾角: 42.999°
近地点辐角 259.481°
升交点赤经 270.522°
平近点角 100.589°
近地点: 355.109km
远地点: 357.087km
周期: 91.663分钟
每日圈数: 15.709797
详细信息
固有亮度:
5
最大亮度:
2.5
卫星平台:
Starlink V1.0
覆盖范围:
全球
运营商:
太空探索技术公司
运营商所在国:
美国
制造商(研发单位):
太空探索技术公司
制造商所在国:
美国
使用方式:
暂无
卫星简介
Starlink 计划是 SpaceX 推出的全球卫星互联网项目,通过发射低轨道卫星,为全球尤其是偏远地区提供高速、低延迟的互联网服务。自 2019 年起,Starlink 已部署数千颗卫星,旨在缩小全球数字鸿沟,推动互联网普及。该项目还为军事、航空等行业提供通信支持,带来广泛经济效益。
2D轨道图
3D轨道图
轨道高度分析图
轨道倾角分析图
轨道综合分析图
查看轨道综合分析图